GFSGBSN_prec_precacc_231.txt.gz
Total_Precipitation_Accumulation
0.53 0.52 0.50 0.46 0.42 0.36 0.31 0.30 0.26 0.18 0.12 0.09 0.07 0.06 0.05 0.05 0.05 0.04 0.03 0.02 0.03 0.02 0.02 0.02 0.03 0.03 0.17 0.32 0.09 0.00 0.00 0.00 0.00 0.00 0.00 0.00 0.00 0.00 0.00 0.00 0.00 0.00 0.00 0.00 0.00 0.03 0.02
0.71 0.66 0.63 0.59 0.54 0.48 0.41 0.34 0.25 0.19 0.14 0.10 0.09 0.07 0.05 0.06 0.06 0.05 0.05 0.04 0.04 0.04 0.04 0.03 0.05 0.18 0.57 0.61 0.02 0.00 0.00 0.00 0.00 0.00 0.00 0.00 0.00 0.00 0.00 0.00 0.00 0.00 0.00 0.00 0.00 0.02 0.02
1.03 0.79 0.61 0.51 0.43 0.38 0.35 0.34 0.33 0.34 0.31 0.22 0.16 0.10 0.07 0.06 0.06 0.05 0.04 0.05 0.05 0.05 0.05 0.06 0.10 0.41 1.21 0.29 0.00 0.00 0.00 0.00 0.00 0.00 0.00 0.00 0.00 0.02 0.04 0.01 0.00 0.00 0.01 0.01 0.00 0.01 0.02
1.62 1.37 1.19 1.12 1.00 0.82 0.68 0.58 0.47 0.37 0.31 0.24 0.17 0.11 0.10 0.06 0.06 0.05 0.05 0.04 0.04 0.06 0.08 0.12 0.29 1.12 1.74 0.03 0.00 0.00 0.00 0.00 0.00 0.00 0.00 0.00 0.02 0.06 0.09 0.07 0.06 0.05 0.04 0.02 0.02 0.00 0.02
1.96 1.90 1.80 1.64 1.41 1.29 1.19 1.03 0.91 0.81 0.71 0.57 0.46 0.35 0.24 0.13 0.10 0.09 0.08 0.10 0.13 0.16 0.24 0.42 1.09 1.41 0.91 0.06 0.03 0.00 0.00 0.02 0.01 0.00 0.01 0.05 0.13 0.20 0.28 0.35 0.36 0.18 0.09 0.02 0.00 0.00 0.01
1.86 1.75 1.64 1.57 1.45 1.32 1.19 1.09 1.02 0.96 0.97 0.87 0.78 0.70 0.52 0.31 0.22 0.14 0.14 0.32 0.50 0.52 0.44 0.74 1.77 1.76 0.60 0.11 0.00 0.00 0.00 0.01 0.04 0.05 0.07 0.13 0.31 0.45 0.49 0.50 0.43 0.14 0.08 0.02 0.00 0.00 0.00
1.67 1.53 1.41 1.34 1.24 1.10 1.00 0.88 0.76 0.72 0.75 0.73 0.68 0.64 0.58 0.48 0.37 0.34 0.44 0.70 0.85 0.67 0.53 0.28 0.40 0.18 0.01 0.00 0.02 0.01 0.00 0.11 0.26 0.56 0.30 0.19 0.39 0.60 0.25 0.11 0.09 0.05 0.04 0.04 0.01 0.00 0.01
1.33 1.29 1.19 1.09 0.96 0.90 0.88 0.89 0.81 0.76 0.72 0.65 0.55 0.47 0.42 0.41 0.37 0.33 0.46 0.64 0.47 0.76 0.87 0.11 0.02 0.02 0.00 0.01 0.15 0.25 0.22 0.50 0.69 0.81 0.56 1.05 0.82 0.12 0.07 0.09 0.16 0.18 0.22 0.12 0.03 0.01 0.10
1.63 1.50 1.36 1.18 1.05 0.90 0.79 0.76 0.71 0.66 0.64 0.60 0.57 0.50 0.41 0.34 0.38 0.36 0.31 0.36 0.36 0.94 2.59 0.90 0.03 0.01 0.00 0.07 0.05 0.08 0.20 0.43 0.62 0.74 0.81 0.79 0.50 0.22 0.22 0.29 0.35 0.27 0.14 0.06 0.06 0.08 0.19
1.56 1.43 1.45 1.41 1.33 1.21 1.08 1.03 0.94 0.79 0.71 0.64 0.56 0.56 0.53 0.51 0.43 0.31 0.42 0.39 0.34 1.01 4.41 2.30 0.04 0.04 0.04 0.07 0.10 0.01 0.09 0.20 0.52 0.81 0.86 1.10 0.41 0.31 0.60 0.80 0.91 1.18 0.61 0.38 0.31 0.48 0.42
1.47 1.37 1.34 1.33 1.33 1.33 1.28 1.25 1.19 1.11 0.96 0.83 0.71 0.62 0.60 0.68 0.44 0.47 0.56 0.48 0.71 2.52 6.57 1.86 0.03 0.05 0.03 0.08 0.11 0.04 0.02 0.31 0.39 0.32 0.80 1.33 0.68 0.38 0.51 0.57 0.46 0.62 0.52 0.90 1.28 1.44 1.52
1.21 1.14 1.24 1.32 1.29 1.18 1.08 1.09 1.13 0.98 0.89 0.84 0.81 0.84 0.95 0.70 0.48 0.41 0.44 0.78 2.61 6.06 5.75 0.78 0.03 0.08 0.22 0.21 0.13 0.12 0.12 0.35 0.46 0.64 0.66 0.42 0.19 0.38 0.54 0.55 0.72 0.84 1.04 1.37 1.45 1.54 2.45
0.87 0.85 0.88 0.98 1.08 1.14 1.16 1.12 1.03 1.06 1.09 1.04 1.01 1.00 1.04 0.70 0.60 0.50 0.67 2.31 5.96 6.17 1.42 0.17 0.07 0.12 0.20 0.30 0.39 0.45 0.63 0.75 1.09 1.39 0.86 0.41 0.21 0.07 0.20 0.46 0.54 1.00 1.80 3.01 3.16 2.86 2.39
0.95 0.82 0.78 0.80 0.79 0.85 0.93 1.01 1.01 1.04 1.15 1.36 1.42 1.40 1.13 0.67 0.61 1.01 1.98 4.69 6.60 1.96 0.24 0.06 0.04 0.07 0.24 0.42 0.52 0.57 0.83 1.09 1.21 1.42 1.64 1.42 0.93 0.34 0.37 0.54 0.61 0.51 1.05 2.37 3.08 1.88 0.97
1.02 0.94 0.87 0.79 0.75 0.72 0.72 0.80 0.91 1.01 1.21 1.55 2.11 1.80 1.49 0.59 0.58 1.80 4.36 6.26 2.96 0.65 0.37 0.24 0.11 0.45 0.68 0.76 0.97 0.76 0.68 0.97 1.58 2.44 3.55 3.46 2.65 1.07 0.63 0.51 0.53 0.52 0.82 0.95 2.07 1.91 2.44
1.14 1.11 1.02 0.93 0.84 0.79 0.80 0.79 0.80 0.97 1.27 1.73 2.07 2.25 1.37 0.40 0.97 2.88 5.94 4.28 1.07 0.40 0.75 0.91 1.27 1.22 1.20 0.86 1.30 1.58 1.60 1.77 1.73 2.03 2.59 3.63 3.36 1.58 1.33 1.23 1.08 0.98 1.19 2.17 3.86 5.68 4.35
1.28 1.17 1.05 0.92 0.89 0.85 0.85 0.89 0.97 1.05 1.49 1.82 2.26 2.92 1.18 0.68 2.54 5.03 5.36 2.08 0.50 0.13 0.28 1.13 1.71 1.65 1.13 1.06 1.33 1.50 1.65 1.24 1.09 1.42 1.66 2.11 3.07 1.50 0.92 1.60 2.09 2.15 2.54 3.16 4.35 4.91 4.50
1.52 1.33 1.23 1.04 0.96 0.98 0.97 1.02 1.17 1.45 1.96 2.63 3.09 2.90 1.16 1.58 3.76 4.31 2.58 0.97 0.47 0.25 0.29 0.81 1.13 1.27 1.33 1.34 1.49 2.07 1.60 1.20 0.65 0.80 1.12 1.14 2.18 1.31 0.68 0.60 0.80 1.27 2.22 3.28 4.76 4.40 4.11
1.85 1.61 1.36 1.21 1.09 1.09 1.02 1.14 1.35 1.81 2.58 3.08 3.98 2.48 2.05 2.57 3.15 1.99 1.02 0.57 0.54 0.51 0.45 0.96 1.11 1.35 1.51 1.59 1.81 1.36 1.49 0.92 0.70 0.95 1.34 1.33 2.19 1.85 1.11 1.03 1.25 1.30 1.40 2.01 3.16 4.16 4.20
1.91 1.79 1.53 1.41 1.35 1.31 1.20 1.25 1.49 1.89 2.79 3.90 4.86 3.56 3.78 4.47 2.03 0.93 0.98 0.95 0.86 0.56 0.57 0.77 1.18 1.30 1.32 1.08 1.00 1.19 0.90 0.51 0.33 0.45 0.75 1.39 2.20 1.72 1.50 1.41 1.66 1.62 1.46 1.45 2.49 3.80 2.93
2.19 1.91 1.66 1.52 1.51 1.48 1.43 1.35 1.53 2.20 3.25 5.41 6.75 3.25 1.60 2.47 1.94 1.11 1.08 1.36 0.93 0.79 0.73 0.64 1.09 1.04 1.23 1.42 0.83 0.66 0.66 0.47 0.30 0.30 0.41 1.04 2.07 1.21 0.97 0.97 0.73 0.93 1.33 1.45 1.50 1.57 1.99
2.23 2.03 1.84 1.65 1.57 1.69 1.59 1.60 1.62 2.35 4.29 7.49 6.74 2.06 1.17 0.75 0.53 1.13 1.98 1.89 1.01 0.72 1.09 0.84 0.79 0.54 0.83 1.23 1.12 0.94 0.85 0.90 0.78 0.48 0.55 0.72 1.41 1.18 0.97 0.72 0.56 0.86 1.06 0.73 0.75 1.15 1.15
2.48 2.27 2.21 1.98 1.83 1.85 2.05 1.95 1.88 2.30 4.95 8.78 5.35 1.72 2.10 1.41 0.73 1.28 1.28 1.05 0.87 0.95 0.91 0.75 0.91 1.17 1.00 0.71 0.70 0.73 0.65 0.75 0.80 0.86 0.89 0.86 1.09 1.18 0.95 0.37 0.52 1.33 0.97 0.52 0.33 0.31 0.35
2.49 2.40 2.22 2.49 2.15 2.04 2.10 2.29 2.40 2.58 3.92 4.92 3.41 1.73 2.90 2.42 1.33 0.90 0.65 0.74 0.76 0.90 1.16 0.62 0.69 0.89 0.65 0.50 0.59 0.65 0.59 0.43 0.46 0.45 0.82 1.22 0.95 1.32 1.03 0.79 1.64 1.06 0.32 0.17 0.08 0.12 0.15
2.22 2.33 2.08 2.28 2.52 2.25 2.07 2.16 2.68 2.79 2.97 3.36 2.73 2.44 3.02 2.25 0.85 0.83 0.83 0.75 0.63 0.72 0.90 0.66 0.59 0.67 0.74 0.87 1.33 1.12 0.83 0.70 0.31 0.30 0.33 0.53 1.11 1.68 1.37 0.86 0.71 0.39 0.15 0.11 0.19 0.18 0.12
2.23 2.21 1.94 2.10 2.29 2.56 2.31 2.13 2.45 2.84 2.98 3.39 2.59 2.75 3.86 3.35 1.32 0.55 1.00 1.11 1.00 0.92 0.99 0.69 0.48 0.36 0.73 1.19 1.64 1.38 0.81 0.63 0.46 0.43 0.37 0.65 1.09 2.21 1.91 1.38 0.78 0.51 0.14 0.07 0.18 0.46 0.19
2.67 2.24 1.97 1.95 1.84 2.34 2.62 2.36 2.02 2.53 3.30 3.65 3.00 2.35 4.46 4.25 1.00 0.58 0.76 0.88 0.98 1.00 1.20 0.93 0.84 0.89 1.09 1.61 1.66 1.11 0.85 0.59 0.78 0.64 0.71 1.06 1.72 2.46 2.31 2.43 1.14 0.36 0.16 0.16 0.78 1.06 0.36
2.60 2.47 1.74 1.66 1.56 1.69 2.02 2.52 2.40 2.34 3.26 4.40 3.50 2.05 3.02 3.66 1.28 0.65 0.57 0.63 0.62 0.82 1.27 1.43 1.64 1.86 1.97 2.08 1.76 1.31 1.09 1.00 0.88 0.76 0.78 1.10 1.55 1.65 1.94 2.47 1.85 0.56 0.56 0.88 1.07 0.45 0.22
2.18 2.51 1.72 1.50 1.57 1.58 1.51 1.81 2.53 2.70 3.19 4.40 4.31 2.72 2.91 3.39 2.03 0.88 0.44 0.40 0.44 0.58 0.95 1.21 1.56 1.49 2.18 2.45 1.91 1.28 1.06 1.09 0.89 1.20 0.68 1.11 0.92 1.15 1.28 1.78 1.42 1.10 1.02 0.63 0.39 0.46 0.39

GFSGBSN_prec_precacc_234.txt.gz
Total_Precipitation_Accumulation
0.53 0.52 0.50 0.46 0.42 0.36 0.31 0.30 0.26 0.18 0.12 0.09 0.07 0.07 0.05 0.06 0.05 0.04 0.03 0.02 0.03 0.02 0.02 0.02 0.03 0.03 0.17 0.32 0.09 0.00 0.00 0.00 0.00 0.00 0.00 0.00 0.00 0.00 0.00 0.00 0.00 0.00 0.00 0.00 0.00 0.03 0.02
0.71 0.66 0.63 0.59 0.54 0.48 0.41 0.34 0.26 0.19 0.14 0.11 0.09 0.07 0.05 0.06 0.06 0.05 0.05 0.04 0.04 0.04 0.04 0.03 0.05 0.18 0.57 0.61 0.02 0.00 0.00 0.00 0.00 0.00 0.00 0.00 0.00 0.00 0.01 0.00 0.00 0.00 0.00 0.00 0.00 0.02 0.02
1.03 0.79 0.61 0.51 0.43 0.38 0.35 0.34 0.33 0.34 0.31 0.23 0.16 0.10 0.07 0.06 0.06 0.05 0.04 0.05 0.05 0.05 0.05 0.06 0.10 0.41 1.21 0.29 0.00 0.00 0.00 0.00 0.00 0.00 0.01 0.01 0.01 0.03 0.06 0.02 0.00 0.00 0.01 0.01 0.00 0.01 0.02
1.62 1.37 1.19 1.12 1.00 0.83 0.68 0.58 0.48 0.38 0.31 0.25 0.17 0.11 0.10 0.06 0.06 0.05 0.05 0.04 0.04 0.06 0.08 0.12 0.29 1.12 1.74 0.03 0.00 0.00 0.00 0.00 0.00 0.00 0.00 0.01 0.03 0.08 0.12 0.09 0.08 0.08 0.11 0.08 0.02 0.00 0.02
1.96 1.90 1.80 1.64 1.42 1.30 1.20 1.04 0.93 0.83 0.71 0.57 0.46 0.35 0.24 0.13 0.10 0.09 0.08 0.10 0.13 0.16 0.24 0.42 1.09 1.41 0.91 0.06 0.03 0.00 0.00 0.02 0.01 0.00 0.01 0.06 0.17 0.24 0.32 0.41 0.43 0.21 0.15 0.08 0.02 0.00 0.01
1.86 1.75 1.64 1.58 1.45 1.33 1.20 1.10 1.04 0.99 0.98 0.88 0.78 0.70 0.52 0.31 0.22 0.14 0.14 0.32 0.50 0.52 0.44 0.74 1.77 1.76 0.60 0.11 0.00 0.00 0.00 0.01 0.04 0.05 0.07 0.13 0.33 0.48 0.52 0.57 0.51 0.16 0.09 0.03 0.01 0.00 0.01
1.67 1.53 1.41 1.35 1.25 1.11 1.01 0.90 0.78 0.74 0.75 0.73 0.68 0.64 0.58 0.48 0.37 0.34 0.44 0.70 0.85 0.67 0.53 0.28 0.40 0.18 0.01 0.00 0.02 0.01 0.00 0.11 0.26 0.56 0.30 0.19 0.40 0.61 0.25 0.13 0.13 0.11 0.10 0.09 0.03 0.00 0.04
1.33 1.30 1.20 1.09 0.97 0.91 0.89 0.90 0.83 0.77 0.72 0.65 0.55 0.47 0.42 0.41 0.37 0.33 0.46 0.64 0.47 0.76 0.87 0.11 0.02 0.02 0.00 0.01 0.15 0.25 0.22 0.50 0.69 0.81 0.56 1.05 0.82 0.12 0.07 0.09 0.19 0.24 0.28 0.17 0.06 0.02 0.14
1.64 1.51 1.38 1.23 1.07 0.92 0.80 0.77 0.71 0.66 0.64 0.60 0.57 0.50 0.41 0.34 0.38 0.36 0.31 0.36 0.36 0.94 2.59 0.90 0.03 0.01 0.00 0.07 0.05 0.08 0.20 0.43 0.62 0.74 0.81 0.79 0.50 0.22 0.22 0.29 0.36 0.32 0.22 0.14 0.13 0.12 0.23
1.58 1.47 1.48 1.45 1.38 1.23 1.09 1.04 0.94 0.79 0.71 0.64 0.56 0.56 0.53 0.51 0.43 0.31 0.42 0.39 0.34 1.01 4.41 2.30 0.04 0.04 0.04 0.07 0.10 0.01 0.09 0.20 0.52 0.81 0.86 1.10 0.41 0.31 0.60 0.80 0.92 1.18 0.61 0.42 0.40 0.58 0.54
1.50 1.39 1.37 1.34 1.35 1.35 1.29 1.25 1.19 1.11 0.96 0.83 0.71 0.62 0.60 0.68 0.44 0.47 0.56 0.48 0.71 2.52 6.57 1.86 0.03 0.05 0.03 0.08 0.11 0.04 0.02 0.31 0.39 0.32 0.80 1.33 0.68 0.38 0.51 0.58 0.47 0.63 0.52 0.90 1.35 1.62 1.82
1.24 1.17 1.27 1.35 1.30 1.18 1.08 1.09 1.13 0.98 0.89 0.84 0.81 0.84 0.95 0.70 0.48 0.41 0.44 0.78 2.61 6.06 5.75 0.78 0.03 0.08 0.22 0.21 0.13 0.12 0.12 0.35 0.46 0.64 0.66 0.42 0.19 0.38 0.54 0.55 0.72 0.84 1.04 1.38 1.48 1.61 2.61
0.94 0.91 0.93 1.02 1.09 1.14 1.16 1.12 1.03 1.06 1.09 1.04 1.01 1.00 1.04 0.70 0.60 0.50 0.67 2.31 5.96 6.17 1.42 0.17 0.07 0.12 0.20 0.30 0.39 0.45 0.63 0.75 1.09 1.40 0.87 0.41 0.21 0.07 0.20 0.46 0.54 1.02 1.87 3.10 3.21 2.91 2.45
1.06 0.87 0.81 0.83 0.80 0.85 0.93 1.01 1.01 1.04 1.15 1.36 1.42 1.40 1.13 0.67 0.61 1.01 1.98 4.69 6.60 1.96 0.24 0.06 0.04 0.07 0.24 0.42 0.52 0.57 0.83 1.09 1.21 1.44 1.66 1.44 0.93 0.34 0.37 0.54 0.62 0.54 1.14 2.50 3.12 1.91 1.03
1.09 0.98 0.88 0.80 0.75 0.72 0.72 0.80 0.91 1.01 1.21 1.55 2.11 1.80 1.49 0.59 0.58 1.80 4.36 6.26 2.96 0.65 0.37 0.24 0.11 0.45 0.68 0.76 0.97 0.76 0.68 0.97 1.58 2.44 3.63 3.54 2.68 1.07 0.63 0.51 0.64 0.67 0.97 1.08 2.20 1.96 2.54
1.16 1.11 1.02 0.93 0.84 0.79 0.80 0.79 0.80 0.97 1.27 1.73 2.07 2.25 1.37 0.40 0.97 2.88 5.94 4.28 1.07 0.40 0.75 0.91 1.27 1.22 1.20 0.86 1.30 1.58 1.60 1.77 1.73 2.04 2.66 3.80 3.50 1.59 1.33 1.23 1.14 1.15 1.35 2.40 4.12 5.73 4.37
1.29 1.17 1.05 0.92 0.89 0.85 0.85 0.89 0.97 1.05 1.49 1.82 2.26 2.92 1.18 0.68 2.54 5.03 5.36 2.08 0.50 0.13 0.28 1.13 1.71 1.65 1.13 1.06 1.33 1.50 1.65 1.24 1.09 1.42 1.67 2.28 3.24 1.51 0.92 1.61 2.17 2.24 2.66 3.30 4.68 5.07 4.51
1.52 1.33 1.23 1.04 0.96 0.98 0.97 1.02 1.17 1.45 1.96 2.63 3.09 2.90 1.16 1.58 3.76 4.31 2.58 0.97 0.47 0.25 0.29 0.81 1.13 1.27 1.33 1.34 1.49 2.07 1.60 1.20 0.65 0.81 1.13 1.22 2.34 1.33 0.68 0.61 0.82 1.32 2.33 3.44 4.97 4.71 4.21
1.85 1.61 1.36 1.21 1.09 1.09 1.02 1.14 1.35 1.81 2.58 3.08 3.98 2.48 2.05 2.57 3.15 1.99 1.02 0.57 0.54 0.51 0.45 0.96 1.11 1.35 1.51 1.59 1.82 1.36 1.49 0.92 0.70 0.95 1.39 1.41 2.26 1.88 1.12 1.04 1.26 1.30 1.42 2.07 3.24 4.28 4.36
1.91 1.79 1.53 1.41 1.35 1.31 1.20 1.25 1.49 1.89 2.79 3.90 4.86 3.56 3.78 4.47 2.03 0.93 0.98 0.95 0.86 0.56 0.57 0.77 1.18 1.30 1.32 1.08 1.00 1.19 0.90 0.51 0.33 0.45 0.76 1.41 2.21 1.74 1.54 1.43 1.67 1.62 1.47 1.46 2.52 3.88 3.02
2.19 1.91 1.66 1.52 1.51 1.48 1.43 1.35 1.53 2.20 3.25 5.41 6.75 3.25 1.60 2.47 1.94 1.11 1.08 1.36 0.93 0.79 0.73 0.64 1.09 1.04 1.23 1.42 0.83 0.66 0.66 0.47 0.30 0.30 0.41 1.04 2.07 1.21 0.97 0.98 0.74 0.94 1.34 1.46 1.54 1.65 2.09
2.23 2.03 1.84 1.65 1.57 1.69 1.59 1.60 1.62 2.35 4.29 7.49 6.74 2.06 1.17 0.75 0.53 1.13 1.98 1.89 1.01 0.72 1.09 0.84 0.79 0.54 0.83 1.23 1.12 0.94 0.85 0.90 0.78 0.48 0.55 0.72 1.41 1.18 0.97 0.72 0.56 0.86 1.06 0.74 0.78 1.21 1.24
2.48 2.27 2.21 1.98 1.83 1.85 2.05 1.95 1.88 2.30 4.95 8.78 5.35 1.72 2.10 1.41 0.73 1.28 1.28 1.05 0.87 0.95 0.91 0.75 0.91 1.17 1.00 0.71 0.70 0.73 0.65 0.75 0.80 0.86 0.89 0.86 1.09 1.18 0.95 0.37 0.52 1.36 1.06 0.58 0.39 0.36 0.46
2.49 2.40 2.22 2.49 2.15 2.04 2.10 2.29 2.40 2.58 3.92 4.92 3.41 1.73 2.90 2.42 1.33 0.90 0.65 0.74 0.76 0.90 1.16 0.62 0.69 0.89 0.65 0.50 0.59 0.65 0.59 0.43 0.46 0.45 0.82 1.22 0.95 1.32 1.03 0.79 1.65 1.21 0.38 0.24 0.16 0.17 0.26
2.22 2.33 2.08 2.28 2.52 2.25 2.07 2.16 2.68 2.79 2.97 3.36 2.73 2.44 3.02 2.25 0.85 0.83 0.83 0.75 0.63 0.72 0.90 0.66 0.59 0.67 0.74 0.87 1.33 1.12 0.83 0.70 0.31 0.30 0.33 0.53 1.11 1.68 1.37 0.86 0.72 0.45 0.21 0.16 0.26 0.24 0.18
2.23 2.21 1.94 2.10 2.29 2.56 2.31 2.13 2.45 2.84 2.98 3.39 2.59 2.75 3.86 3.35 1.32 0.55 1.00 1.11 1.00 0.92 0.99 0.69 0.48 0.36 0.73 1.19 1.64 1.38 0.82 0.65 0.48 0.43 0.37 0.65 1.09 2.21 1.91 1.38 0.79 0.51 0.14 0.08 0.20 0.51 0.24
2.67 2.24 1.97 1.95 1.84 2.34 2.62 2.36 2.02 2.53 3.30 3.65 3.00 2.35 4.46 4.25 1.00 0.58 0.76 0.88 0.98 1.00 1.20 0.93 0.84 0.89 1.09 1.61 1.66 1.11 0.85 0.61 0.83 0.66 0.71 1.06 1.72 2.46 2.31 2.44 1.14 0.36 0.16 0.17 0.87 1.10 0.37
2.60 2.47 1.74 1.66 1.56 1.69 2.02 2.52 2.40 2.34 3.26 4.40 3.50 2.05 3.02 3.66 1.28 0.65 0.57 0.63 0.62 0.82 1.27 1.43 1.64 1.86 1.97 2.08 1.76 1.31 1.09 1.00 0.89 0.76 0.78 1.13 1.56 1.66 1.94 2.48 1.85 0.56 0.57 0.89 1.09 0.45 0.22
2.18 2.51 1.72 1.50 1.57 1.58 1.51 1.81 2.53 2.70 3.19 4.40 4.31 2.72 2.91 3.39 2.03 0.88 0.44 0.40 0.44 0.58 0.95 1.21 1.56 1.49 2.18 2.45 1.91 1.29 1.06 1.09 0.89 1.20 0.68 1.11 0.92 1.16 1.29 1.78 1.42 1.10 1.03 0.63 0.39 0.46 0.39

GFSGBSN_prec_precacc_237.txt.gz
Total_Precipitation_Accumulation
0.53 0.52 0.50 0.46 0.42 0.36 0.31 0.30 0.26 0.18 0.12 0.09 0.07 0.07 0.06 0.06 0.06 0.04 0.03 0.02 0.03 0.02 0.02 0.02 0.03 0.03 0.17 0.32 0.09 0.00 0.00 0.00 0.00 0.00 0.00 0.00 0.00 0.00 0.00 0.00 0.00 0.00 0.00 0.00 0.00 0.03 0.02
0.71 0.66 0.63 0.59 0.54 0.48 0.41 0.34 0.26 0.19 0.14 0.11 0.09 0.08 0.06 0.06 0.06 0.05 0.05 0.04 0.04 0.04 0.04 0.03 0.05 0.18 0.57 0.61 0.02 0.00 0.00 0.00 0.00 0.00 0.00 0.00 0.00 0.00 0.01 0.00 0.00 0.00 0.00 0.00 0.00 0.02 0.02
1.03 0.79 0.61 0.51 0.43 0.38 0.35 0.34 0.33 0.34 0.31 0.23 0.16 0.11 0.07 0.06 0.06 0.05 0.04 0.05 0.05 0.05 0.05 0.06 0.10 0.41 1.21 0.29 0.00 0.00 0.00 0.00 0.00 0.00 0.01 0.01 0.01 0.04 0.08 0.05 0.01 0.01 0.03 0.01 0.00 0.01 0.02
1.62 1.37 1.19 1.12 1.00 0.83 0.68 0.58 0.48 0.38 0.32 0.25 0.17 0.11 0.10 0.06 0.06 0.05 0.05 0.04 0.04 0.06 0.08 0.12 0.29 1.12 1.74 0.03 0.00 0.00 0.00 0.00 0.00 0.00 0.00 0.01 0.03 0.10 0.15 0.13 0.10 0.11 0.17 0.11 0.03 0.00 0.02
1.96 1.90 1.80 1.64 1.42 1.30 1.20 1.04 0.93 0.84 0.72 0.57 0.46 0.35 0.24 0.13 0.10 0.09 0.08 0.10 0.13 0.16 0.24 0.42 1.09 1.41 0.91 0.06 0.03 0.00 0.00 0.02 0.01 0.00 0.01 0.06 0.17 0.25 0.34 0.44 0.44 0.22 0.17 0.09 0.02 0.00 0.02
1.86 1.75 1.64 1.58 1.45 1.33 1.21 1.11 1.05 0.99 0.99 0.88 0.78 0.70 0.52 0.31 0.22 0.14 0.14 0.32 0.50 0.52 0.44 0.74 1.77 1.76 0.60 0.11 0.00 0.00 0.00 0.01 0.04 0.05 0.07 0.13 0.33 0.49 0.53 0.60 0.53 0.16 0.10 0.04 0.02 0.00 0.02
1.67 1.53 1.41 1.35 1.25 1.11 1.02 0.91 0.78 0.74 0.75 0.73 0.68 0.64 0.58 0.48 0.37 0.34 0.44 0.70 0.85 0.67 0.53 0.28 0.40 0.18 0.01 0.00 0.02 0.01 0.00 0.11 0.26 0.56 0.30 0.19 0.40 0.61 0.25 0.13 0.14 0.12 0.13 0.11 0.04 0.00 0.05
1.33 1.30 1.20 1.10 0.97 0.91 0.90 0.90 0.83 0.77 0.72 0.65 0.55 0.47 0.42 0.41 0.37 0.33 0.46 0.64 0.47 0.76 0.87 0.11 0.02 0.02 0.00 0.01 0.15 0.25 0.22 0.50 0.69 0.81 0.56 1.05 0.82 0.12 0.07 0.09 0.19 0.24 0.28 0.17 0.06 0.02 0.14
1.64 1.52 1.38 1.23 1.08 0.92 0.80 0.77 0.71 0.66 0.64 0.61 0.57 0.50 0.41 0.34 0.38 0.36 0.31 0.36 0.36 0.94 2.59 0.90 0.03 0.01 0.00 0.07 0.05 0.08 0.20 0.43 0.62 0.74 0.81 0.79 0.50 0.22 0.22 0.29 0.37 0.32 0.22 0.14 0.13 0.12 0.23
1.59 1.48 1.48 1.46 1.39 1.23 1.09 1.04 0.94 0.79 0.71 0.64 0.56 0.56 0.53 0.51 0.43 0.31 0.42 0.39 0.34 1.01 4.41 2.30 0.04 0.04 0.04 0.07 0.10 0.01 0.09 0.20 0.52 0.81 0.86 1.10 0.41 0.31 0.60 0.81 0.92 1.18 0.61 0.42 0.40 0.58 0.55
1.51 1.40 1.37 1.34 1.35 1.35 1.29 1.25 1.19 1.11 0.96 0.83 0.71 0.62 0.60 0.68 0.44 0.47 0.56 0.48 0.71 2.52 6.57 1.86 0.03 0.05 0.03 0.08 0.11 0.04 0.02 0.31 0.39 0.32 0.80 1.33 0.68 0.38 0.51 0.58 0.47 0.63 0.52 0.90 1.35 1.63 1.86
1.28 1.19 1.28 1.35 1.32 1.20 1.09 1.09 1.13 0.98 0.89 0.84 0.81 0.84 0.95 0.70 0.48 0.41 0.44 0.78 2.61 6.06 5.75 0.78 0.03 0.08 0.22 0.21 0.13 0.12 0.12 0.35 0.46 0.64 0.66 0.42 0.19 0.38 0.54 0.55 0.72 0.85 1.05 1.38 1.49 1.64 2.70
1.00 0.95 0.95 1.04 1.12 1.19 1.18 1.14 1.04 1.06 1.09 1.04 1.01 1.00 1.04 0.70 0.60 0.50 0.67 2.31 5.96 6.17 1.42 0.17 0.07 0.12 0.20 0.30 0.39 0.45 0.63 0.75 1.09 1.40 0.87 0.41 0.21 0.07 0.21 0.47 0.54 1.02 1.89 3.18 3.26 2.94 2.47
1.16 0.94 0.86 0.85 0.85 0.89 0.98 1.02 1.02 1.04 1.15 1.36 1.42 1.40 1.13 0.67 0.61 1.01 1.98 4.69 6.60 1.96 0.24 0.06 0.04 0.07 0.24 0.42 0.52 0.57 0.83 1.09 1.21 1.44 1.66 1.44 0.93 0.34 0.37 0.55 0.62 0.54 1.23 2.68 3.30 1.93 1.04
1.24 1.13 0.97 0.83 0.80 0.75 0.74 0.80 0.91 1.01 1.21 1.55 2.11 1.80 1.49 0.59 0.58 1.80 4.36 6.26 2.96 0.65 0.37 0.24 0.11 0.45 0.68 0.76 0.97 0.76 0.68 0.97 1.58 2.44 3.66 3.56 2.69 1.07 0.63 0.51 0.66 0.82 1.11 1.18 2.38 1.99 2.59
1.33 1.29 1.18 0.98 0.86 0.80 0.81 0.79 0.80 0.97 1.27 1.73 2.07 2.25 1.37 0.40 0.97 2.88 5.94 4.28 1.07 0.40 0.75 0.91 1.27 1.22 1.20 0.86 1.30 1.58 1.60 1.77 1.73 2.04 2.67 3.81 3.61 1.59 1.33 1.24 1.16 1.28 1.45 2.49 4.19 5.83 4.39
1.45 1.31 1.18 0.99 0.91 0.86 0.85 0.89 0.97 1.05 1.49 1.82 2.26 2.92 1.18 0.68 2.54 5.03 5.36 2.08 0.50 0.13 0.28 1.13 1.71 1.65 1.13 1.06 1.33 1.50 1.65 1.24 1.09 1.42 1.67 2.30 3.29 1.52 0.92 1.61 2.21 2.27 2.73 3.38 4.73 5.16 4.63
1.66 1.47 1.31 1.08 0.98 0.99 0.97 1.02 1.17 1.45 1.96 2.63 3.09 2.90 1.16 1.58 3.76 4.31 2.58 0.97 0.47 0.25 0.29 0.81 1.13 1.27 1.33 1.34 1.49 2.07 1.60 1.20 0.65 0.81 1.13 1.22 2.42 1.34 0.68 0.61 0.83 1.34 2.38 3.57 5.17 4.86 4.36
1.93 1.68 1.40 1.24 1.10 1.09 1.02 1.14 1.35 1.81 2.58 3.08 3.98 2.48 2.05 2.57 3.15 1.99 1.02 0.57 0.54 0.51 0.45 0.96 1.11 1.35 1.51 1.59 1.82 1.36 1.49 0.92 0.70 0.95 1.39 1.43 2.27 1.89 1.12 1.04 1.26 1.32 1.47 2.17 3.34 4.43 4.61
1.94 1.81 1.54 1.41 1.35 1.31 1.20 1.25 1.49 1.89 2.79 3.90 4.86 3.56 3.78 4.47 2.03 0.93 0.98 0.95 0.86 0.56 0.57 0.77 1.18 1.30 1.32 1.08 1.00 1.19 0.90 0.51 0.33 0.45 0.76 1.41 2.21 1.74 1.56 1.44 1.70 1.74 1.49 1.51 2.60 4.04 3.22
2.21 1.92 1.66 1.52 1.51 1.48 1.43 1.35 1.53 2.20 3.25 5.41 6.75 3.25 1.60 2.47 1.94 1.11 1.08 1.36 0.93 0.79 0.73 0.64 1.09 1.04 1.23 1.42 0.83 0.66 0.66 0.47 0.30 0.30 0.41 1.04 2.07 1.21 0.97 0.98 0.78 1.01 1.35 1.50 1.67 1.80 2.34
2.23 2.03 1.84 1.65 1.57 1.69 1.59 1.60 1.62 2.35 4.29 7.49 6.74 2.06 1.17 0.75 0.53 1.13 1.98 1.89 1.01 0.72 1.09 0.84 0.79 0.54 0.83 1.23 1.12 0.94 0.85 0.90 0.78 0.48 0.55 0.72 1.41 1.18 0.97 0.72 0.56 0.86 1.07 0.76 0.86 1.34 1.47
2.48 2.27 2.21 1.98 1.83 1.85 2.05 1.95 1.88 2.30 4.95 8.78 5.35 1.72 2.10 1.41 0.73 1.28 1.28 1.05 0.87 0.95 0.91 0.75 0.91 1.17 1.00 0.71 0.70 0.73 0.65 0.75 0.80 0.86 0.89 0.86 1.09 1.18 0.95 0.37 0.52 1.38 1.15 0.68 0.51 0.54 0.61
2.49 2.40 2.22 2.49 2.15 2.04 2.10 2.29 2.40 2.58 3.92 4.92 3.41 1.73 2.90 2.42 1.33 0.90 0.65 0.74 0.76 0.90 1.16 0.62 0.69 0.89 0.65 0.50 0.59 0.65 0.59 0.43 0.46 0.45 0.82 1.22 0.95 1.32 1.03 0.79 1.66 1.23 0.41 0.31 0.28 0.30 0.40
2.22 2.33 2.08 2.28 2.52 2.25 2.07 2.16 2.68 2.79 2.97 3.36 2.73 2.44 3.02 2.25 0.85 0.83 0.83 0.75 0.63 0.72 0.90 0.66 0.59 0.67 0.74 0.87 1.33 1.12 0.83 0.70 0.31 0.30 0.33 0.53 1.11 1.68 1.37 0.86 0.72 0.45 0.21 0.23 0.34 0.32 0.24
2.24 2.21 1.94 2.10 2.29 2.56 2.31 2.13 2.45 2.84 2.98 3.39 2.59 2.75 3.86 3.35 1.32 0.55 1.00 1.11 1.00 0.92 0.99 0.69 0.48 0.36 0.73 1.19 1.64 1.38 0.82 0.66 0.48 0.43 0.37 0.65 1.09 2.21 1.91 1.38 0.80 0.51 0.14 0.10 0.26 0.53 0.25
2.67 2.24 1.97 1.95 1.84 2.34 2.62 2.36 2.02 2.53 3.30 3.65 3.00 2.35 4.46 4.25 1.00 0.58 0.76 0.88 0.98 1.00 1.20 0.93 0.84 0.89 1.09 1.61 1.66 1.11 0.85 0.61 0.83 0.66 0.71 1.06 1.72 2.46 2.31 2.44 1.15 0.36 0.16 0.17 0.88 1.12 0.37
2.60 2.47 1.74 1.66 1.56 1.69 2.02 2.52 2.40 2.34 3.26 4.40 3.50 2.05 3.02 3.66 1.28 0.65 0.57 0.63 0.62 0.82 1.27 1.43 1.64 1.86 1.97 2.08 1.76 1.31 1.09 1.00 0.89 0.76 0.78 1.13 1.56 1.66 1.94 2.48 1.85 0.56 0.57 0.89 1.09 0.45 0.22
2.18 2.51 1.72 1.50 1.57 1.58 1.51 1.81 2.53 2.70 3.19 4.40 4.31 2.72 2.91 3.39 2.03 0.88 0.44 0.40 0.44 0.58 0.95 1.21 1.56 1.49 2.18 2.45 1.91 1.29 1.06 1.09 0.89 1.20 0.68 1.11 0.92 1.16 1.29 1.78 1.42 1.10 1.03 0.63 0.39 0.46 0.39

GFSGBSN_prec_precacc_243.txt.gz
Total_Precipitation_Accumulation
0.53 0.52 0.50 0.46 0.42 0.36 0.31 0.30 0.26 0.18 0.12 0.09 0.08 0.07 0.06 0.06 0.06 0.04 0.03 0.02 0.03 0.02 0.02 0.02 0.03 0.03 0.17 0.32 0.09 0.00 0.00 0.00 0.00 0.00 0.00 0.00 0.00 0.00 0.00 0.00 0.00 0.00 0.00 0.00 0.00 0.03 0.02
0.71 0.66 0.63 0.59 0.54 0.48 0.41 0.34 0.26 0.19 0.14 0.11 0.09 0.08 0.06 0.06 0.06 0.05 0.05 0.04 0.04 0.04 0.04 0.03 0.05 0.18 0.57 0.61 0.02 0.00 0.00 0.00 0.00 0.00 0.00 0.00 0.01 0.01 0.02 0.00 0.00 0.00 0.00 0.00 0.00 0.02 0.02
1.03 0.79 0.61 0.51 0.43 0.38 0.35 0.34 0.33 0.34 0.31 0.23 0.16 0.11 0.07 0.06 0.06 0.05 0.04 0.05 0.05 0.05 0.05 0.06 0.10 0.41 1.21 0.29 0.00 0.00 0.00 0.00 0.00 0.00 0.01 0.01 0.02 0.05 0.09 0.05 0.01 0.02 0.03 0.01 0.00 0.01 0.02
1.63 1.37 1.19 1.12 1.00 0.83 0.68 0.58 0.48 0.38 0.32 0.25 0.17 0.11 0.10 0.06 0.06 0.05 0.05 0.04 0.04 0.06 0.08 0.12 0.29 1.12 1.74 0.03 0.00 0.00 0.00 0.00 0.00 0.00 0.00 0.01 0.03 0.10 0.15 0.13 0.10 0.11 0.17 0.11 0.03 0.01 0.02
2.00 1.91 1.80 1.64 1.42 1.30 1.20 1.04 0.93 0.84 0.72 0.57 0.46 0.35 0.24 0.13 0.10 0.09 0.08 0.10 0.13 0.16 0.24 0.42 1.09 1.41 0.91 0.06 0.03 0.00 0.00 0.02 0.01 0.00 0.01 0.06 0.17 0.25 0.34 0.44 0.44 0.23 0.17 0.09 0.02 0.00 0.02
1.91 1.77 1.65 1.58 1.45 1.33 1.21 1.12 1.05 0.99 0.99 0.88 0.78 0.70 0.52 0.31 0.22 0.14 0.14 0.32 0.50 0.52 0.44 0.74 1.77 1.76 0.60 0.11 0.00 0.00 0.00 0.01 0.04 0.05 0.07 0.13 0.33 0.49 0.53 0.60 0.53 0.16 0.10 0.04 0.02 0.00 0.02
1.77 1.59 1.43 1.36 1.25 1.11 1.02 0.91 0.79 0.74 0.75 0.73 0.68 0.64 0.58 0.48 0.37 0.34 0.44 0.70 0.85 0.67 0.53 0.28 0.40 0.18 0.01 0.00 0.02 0.01 0.00 0.11 0.26 0.56 0.30 0.19 0.40 0.61 0.25 0.13 0.14 0.12 0.13 0.11 0.04 0.00 0.05
1.42 1.38 1.24 1.11 0.97 0.91 0.90 0.90 0.83 0.77 0.72 0.65 0.55 0.47 0.42 0.41 0.37 0.33 0.46 0.64 0.47 0.76 0.87 0.11 0.02 0.02 0.00 0.01 0.15 0.25 0.22 0.50 0.69 0.81 0.56 1.05 0.82 0.12 0.07 0.09 0.19 0.24 0.28 0.17 0.06 0.02 0.14
1.73 1.60 1.44 1.27 1.08 0.92 0.81 0.77 0.71 0.66 0.64 0.61 0.57 0.50 0.41 0.34 0.38 0.36 0.31 0.36 0.36 0.94 2.59 0.90 0.03 0.01 0.00 0.07 0.05 0.08 0.20 0.43 0.62 0.74 0.81 0.79 0.50 0.22 0.22 0.29 0.37 0.32 0.23 0.14 0.13 0.12 0.23
1.66 1.54 1.55 1.50 1.40 1.23 1.09 1.04 0.94 0.79 0.71 0.64 0.56 0.56 0.53 0.51 0.43 0.31 0.42 0.39 0.34 1.01 4.41 2.30 0.04 0.04 0.04 0.07 0.10 0.01 0.09 0.20 0.52 0.81 0.86 1.10 0.41 0.31 0.60 0.81 0.92 1.18 0.61 0.42 0.40 0.59 0.55
1.60 1.46 1.41 1.38 1.37 1.36 1.30 1.25 1.19 1.11 0.96 0.83 0.71 0.62 0.60 0.68 0.44 0.47 0.56 0.48 0.71 2.52 6.57 1.86 0.03 0.05 0.03 0.08 0.11 0.04 0.02 0.31 0.39 0.32 0.80 1.33 0.68 0.38 0.51 0.58 0.47 0.63 0.52 0.91 1.35 1.64 1.88
1.39 1.26 1.33 1.39 1.33 1.21 1.09 1.09 1.13 0.98 0.90 0.85 0.82 0.85 0.95 0.70 0.48 0.41 0.44 0.78 2.61 6.06 5.75 0.78 0.03 0.08 0.22 0.21 0.13 0.12 0.12 0.35 0.46 0.64 0.66 0.42 0.19 0.38 0.54 0.55 0.72 0.85 1.05 1.38 1.49 1.66 2.79
1.10 1.04 0.99 1.07 1.14 1.20 1.20 1.15 1.05 1.08 1.10 1.04 1.02 1.00 1.04 0.70 0.60 0.50 0.67 2.31 5.97 6.17 1.42 0.17 0.07 0.12 0.20 0.30 0.39 0.45 0.63 0.75 1.09 1.40 0.87 0.41 0.21 0.07 0.21 0.47 0.54 1.03 1.92 3.25 3.29 3.04 2.57
1.26 1.08 0.90 0.86 0.86 0.90 0.99 1.04 1.03 1.05 1.17 1.36 1.42 1.40 1.13 0.67 0.61 1.01 1.98 4.69 6.60 1.96 0.24 0.06 0.04 0.07 0.24 0.42 0.52 0.57 0.83 1.09 1.21 1.44 1.66 1.44 0.94 0.34 0.37 0.55 0.63 0.56 1.30 3.07 3.58 1.95 1.04
1.35 1.28 1.05 0.85 0.81 0.79 0.77 0.84 0.93 1.01 1.22 1.56 2.11 1.80 1.49 0.60 0.58 1.80 4.36 6.26 2.96 0.65 0.37 0.24 0.11 0.45 0.68 0.76 0.97 0.76 0.68 0.97 1.58 2.44 3.66 3.58 2.70 1.07 0.63 0.53 0.71 0.86 1.16 1.27 2.55 2.01 2.66
1.46 1.44 1.27 1.01 0.90 0.87 0.87 0.83 0.83 0.98 1.28 1.74 2.09 2.26 1.38 0.40 0.97 2.88 5.94 4.28 1.07 0.40 0.75 0.91 1.27 1.22 1.20 0.86 1.30 1.58 1.60 1.77 1.73 2.04 2.67 3.82 3.64 1.59 1.33 1.25 1.18 1.31 1.49 2.60 4.30 5.95 4.50
1.66 1.48 1.30 1.06 0.96 0.91 0.91 0.92 1.01 1.06 1.50 1.83 2.27 2.94 1.19 0.68 2.54 5.03 5.36 2.08 0.50 0.13 0.28 1.13 1.71 1.65 1.13 1.06 1.33 1.50 1.65 1.24 1.09 1.42 1.67 2.31 3.33 1.53 0.92 1.62 2.22 2.32 2.79 3.53 4.87 5.22 4.80
1.90 1.62 1.47 1.20 1.04 1.03 1.00 1.04 1.21 1.49 1.99 2.65 3.11 2.91 1.17 1.58 3.76 4.31 2.58 0.97 0.47 0.25 0.29 0.81 1.13 1.27 1.33 1.34 1.49 2.07 1.60 1.20 0.65 0.81 1.13 1.23 2.45 1.35 0.69 0.61 0.84 1.40 2.55 3.93 5.62 5.06 4.66
2.19 1.85 1.56 1.35 1.16 1.12 1.04 1.15 1.38 1.86 2.60 3.10 3.99 2.48 2.05 2.57 3.15 1.99 1.02 0.57 0.54 0.51 0.45 0.96 1.11 1.35 1.51 1.59 1.82 1.36 1.49 0.92 0.70 0.95 1.39 1.43 2.28 1.90 1.12 1.04 1.27 1.41 1.62 2.35 3.54 4.66 4.93
2.21 1.98 1.69 1.51 1.40 1.33 1.22 1.27 1.52 1.90 2.79 3.90 4.86 3.56 3.78 4.47 2.03 0.93 0.98 0.95 0.86 0.56 0.57 0.77 1.18 1.30 1.32 1.08 1.00 1.19 0.90 0.51 0.33 0.45 0.76 1.41 2.21 1.75 1.57 1.45 1.76 1.95 1.59 1.64 2.66 4.30 3.43
2.49 2.10 1.79 1.60 1.55 1.51 1.46 1.38 1.55 2.20 3.25 5.41 6.75 3.25 1.60 2.47 1.94 1.11 1.08 1.36 0.93 0.79 0.73 0.64 1.09 1.04 1.23 1.42 0.83 0.66 0.66 0.47 0.30 0.30 0.41 1.04 2.07 1.21 0.97 0.99 0.83 1.14 1.44 1.60 1.90 2.02 2.60
2.47 2.17 1.95 1.73 1.61 1.72 1.62 1.62 1.63 2.35 4.29 7.49 6.74 2.06 1.17 0.75 0.53 1.13 1.98 1.89 1.01 0.72 1.09 0.84 0.79 0.54 0.83 1.23 1.12 0.94 0.85 0.90 0.78 0.48 0.55 0.72 1.41 1.18 0.97 0.73 0.58 0.87 1.10 0.81 0.96 1.51 1.71
2.65 2.39 2.32 2.04 1.87 1.87 2.07 1.96 1.88 2.30 4.95 8.78 5.35 1.72 2.10 1.41 0.73 1.28 1.28 1.05 0.87 0.95 0.91 0.75 0.91 1.17 1.00 0.71 0.70 0.73 0.65 0.75 0.80 0.86 0.89 0.86 1.09 1.18 0.95 0.37 0.53 1.44 1.34 0.74 0.57 0.62 0.68
2.62 2.50 2.30 2.54 2.18 2.06 2.11 2.29 2.40 2.58 3.92 4.92 3.41 1.73 2.90 2.42 1.33 0.90 0.65 0.74 0.76 0.90 1.16 0.62 0.69 0.89 0.65 0.50 0.59 0.65 0.59 0.43 0.46 0.45 0.82 1.22 0.96 1.33 1.04 0.79 1.70 1.28 0.51 0.42 0.31 0.33 0.43
2.31 2.39 2.12 2.31 2.54 2.26 2.07 2.16 2.68 2.79 2.97 3.36 2.73 2.44 3.02 2.25 0.85 0.83 0.83 0.75 0.63 0.72 0.90 0.66 0.59 0.67 0.74 0.87 1.33 1.12 0.83 0.70 0.31 0.30 0.33 0.53 1.11 1.69 1.40 0.89 0.76 0.46 0.24 0.31 0.37 0.35 0.24
2.27 2.24 1.95 2.10 2.29 2.56 2.31 2.13 2.45 2.84 2.98 3.39 2.59 2.75 3.86 3.35 1.32 0.55 1.00 1.11 1.00 0.92 0.99 0.69 0.48 0.36 0.73 1.19 1.64 1.38 0.82 0.66 0.48 0.43 0.37 0.65 1.09 2.22 1.93 1.41 0.83 0.52 0.14 0.12 0.36 0.62 0.25
2.68 2.25 1.97 1.95 1.84 2.34 2.62 2.36 2.02 2.53 3.30 3.65 3.00 2.35 4.46 4.25 1.00 0.58 0.76 0.88 0.98 1.00 1.20 0.93 0.84 0.89 1.09 1.61 1.66 1.11 0.85 0.61 0.83 0.66 0.71 1.06 1.72 2.46 2.31 2.46 1.17 0.36 0.16 0.17 0.92 1.15 0.37
2.60 2.47 1.74 1.66 1.56 1.69 2.02 2.52 2.40 2.34 3.26 4.40 3.50 2.05 3.02 3.66 1.28 0.65 0.57 0.63 0.62 0.82 1.27 1.43 1.64 1.86 1.97 2.08 1.76 1.31 1.09 1.00 0.89 0.76 0.78 1.13 1.56 1.66 1.94 2.48 1.86 0.56 0.57 0.90 1.12 0.50 0.23
2.18 2.51 1.72 1.50 1.57 1.58 1.51 1.81 2.53 2.70 3.19 4.40 4.31 2.72 2.91 3.39 2.03 0.88 0.44 0.40 0.44 0.58 0.95 1.21 1.56 1.49 2.18 2.45 1.91 1.29 1.06 1.09 0.89 1.20 0.68 1.11 0.93 1.16 1.29 1.78 1.42 1.10 1.03 0.64 0.39 0.48 0.39

GFSGBSN_prec_precacc_246.txt.gz
Total_Precipitation_Accumulation
0.53 0.52 0.50 0.46 0.42 0.36 0.31 0.30 0.26 0.18 0.12 0.09 0.08 0.07 0.06 0.06 0.06 0.04 0.03 0.02 0.03 0.02 0.02 0.02 0.03 0.03 0.17 0.32 0.09 0.00 0.00 0.00 0.00 0.00 0.00 0.00 0.00 0.00 0.00 0.00 0.00 0.00 0.00 0.00 0.00 0.03 0.02
0.72 0.66 0.63 0.59 0.54 0.48 0.41 0.34 0.26 0.19 0.14 0.11 0.09 0.08 0.06 0.06 0.06 0.05 0.05 0.04 0.04 0.04 0.04 0.03 0.05 0.18 0.57 0.61 0.02 0.00 0.00 0.00 0.00 0.00 0.00 0.00 0.01 0.01 0.02 0.00 0.00 0.00 0.00 0.00 0.00 0.02 0.02
1.06 0.80 0.61 0.51 0.43 0.38 0.35 0.34 0.33 0.34 0.31 0.23 0.16 0.11 0.07 0.06 0.06 0.05 0.04 0.05 0.05 0.05 0.05 0.06 0.10 0.41 1.21 0.29 0.00 0.00 0.00 0.00 0.00 0.00 0.01 0.01 0.02 0.05 0.09 0.05 0.01 0.02 0.03 0.01 0.00 0.01 0.02
1.69 1.38 1.19 1.12 1.00 0.83 0.68 0.58 0.48 0.38 0.32 0.25 0.17 0.11 0.10 0.06 0.06 0.05 0.05 0.04 0.04 0.06 0.08 0.12 0.29 1.12 1.74 0.03 0.00 0.00 0.00 0.00 0.00 0.00 0.00 0.01 0.03 0.10 0.15 0.13 0.10 0.11 0.17 0.11 0.03 0.01 0.02
2.02 1.96 1.82 1.64 1.42 1.30 1.20 1.04 0.93 0.84 0.72 0.57 0.46 0.35 0.24 0.13 0.10 0.09 0.08 0.10 0.13 0.16 0.24 0.42 1.09 1.41 0.91 0.06 0.03 0.00 0.00 0.02 0.01 0.00 0.01 0.06 0.17 0.25 0.34 0.44 0.44 0.23 0.17 0.09 0.02 0.00 0.02
1.91 1.78 1.68 1.59 1.45 1.33 1.21 1.12 1.05 0.99 0.99 0.88 0.78 0.70 0.52 0.31 0.22 0.14 0.14 0.32 0.50 0.52 0.44 0.74 1.77 1.76 0.60 0.11 0.00 0.00 0.00 0.01 0.04 0.05 0.07 0.13 0.33 0.49 0.53 0.60 0.53 0.16 0.10 0.04 0.02 0.00 0.02
1.77 1.60 1.44 1.36 1.26 1.12 1.02 0.91 0.79 0.74 0.75 0.73 0.68 0.64 0.58 0.48 0.37 0.34 0.44 0.70 0.85 0.67 0.53 0.28 0.40 0.18 0.01 0.00 0.02 0.01 0.00 0.11 0.26 0.56 0.30 0.19 0.40 0.61 0.25 0.13 0.14 0.12 0.13 0.11 0.04 0.00 0.05
1.42 1.38 1.26 1.12 0.98 0.92 0.90 0.90 0.83 0.77 0.72 0.65 0.55 0.47 0.42 0.41 0.37 0.33 0.46 0.64 0.47 0.76 0.87 0.11 0.02 0.02 0.00 0.01 0.15 0.25 0.22 0.50 0.69 0.81 0.56 1.05 0.82 0.12 0.07 0.09 0.19 0.24 0.28 0.17 0.06 0.02 0.14
1.73 1.61 1.46 1.30 1.10 0.93 0.81 0.77 0.71 0.66 0.64 0.61 0.57 0.50 0.41 0.34 0.38 0.36 0.31 0.36 0.36 0.94 2.59 0.90 0.03 0.01 0.00 0.07 0.05 0.08 0.20 0.43 0.62 0.74 0.81 0.79 0.50 0.22 0.22 0.29 0.37 0.32 0.23 0.14 0.13 0.12 0.23
1.66 1.54 1.56 1.55 1.48 1.27 1.10 1.04 0.94 0.79 0.71 0.64 0.56 0.56 0.53 0.51 0.43 0.31 0.42 0.39 0.34 1.01 4.41 2.30 0.04 0.04 0.04 0.07 0.10 0.01 0.09 0.20 0.52 0.81 0.86 1.10 0.41 0.31 0.60 0.81 0.92 1.18 0.61 0.42 0.40 0.59 0.55
1.60 1.46 1.42 1.41 1.45 1.47 1.33 1.25 1.19 1.11 0.96 0.83 0.71 0.62 0.60 0.68 0.44 0.47 0.56 0.48 0.71 2.52 6.57 1.86 0.03 0.05 0.03 0.08 0.11 0.04 0.02 0.31 0.39 0.32 0.80 1.33 0.68 0.38 0.51 0.58 0.47 0.63 0.52 0.91 1.35 1.64 1.88
1.39 1.26 1.34 1.42 1.38 1.30 1.16 1.12 1.13 0.98 0.90 0.85 0.82 0.85 0.95 0.70 0.49 0.41 0.44 0.78 2.61 6.07 5.76 0.78 0.03 0.08 0.22 0.21 0.13 0.12 0.12 0.35 0.46 0.64 0.66 0.42 0.19 0.38 0.54 0.55 0.72 0.85 1.05 1.38 1.49 1.67 2.81
1.11 1.05 1.02 1.11 1.19 1.27 1.27 1.17 1.05 1.08 1.10 1.04 1.02 1.01 1.05 0.71 0.60 0.50 0.67 2.32 6.02 6.19 1.42 0.17 0.07 0.12 0.20 0.30 0.39 0.45 0.63 0.75 1.09 1.40 0.87 0.41 0.21 0.07 0.21 0.47 0.54 1.03 1.93 3.26 3.31 3.08 2.62
1.26 1.09 0.95 0.93 0.93 0.96 1.05 1.05 1.03 1.05 1.17 1.36 1.42 1.41 1.13 0.67 0.61 1.01 1.98 4.70 6.63 1.96 0.24 0.06 0.04 0.07 0.24 0.42 0.52 0.57 0.83 1.09 1.21 1.44 1.66 1.44 0.94 0.34 0.37 0.56 0.65 0.58 1.32 3.12 3.61 1.95 1.07
1.35 1.31 1.10 0.91 0.86 0.84 0.80 0.85 0.93 1.01 1.22 1.56 2.11 1.80 1.50 0.60 0.58 1.80 4.36 6.27 2.96 0.65 0.37 0.24 0.11 0.45 0.68 0.76 0.97 0.76 0.68 0.97 1.58 2.44 3.66 3.58 2.70 1.07 0.63 0.53 0.71 0.87 1.17 1.27 2.60 2.02 2.84
1.46 1.49 1.35 1.08 0.93 0.89 0.89 0.83 0.83 0.98 1.28 1.74 2.09 2.26 1.39 0.41 0.97 2.88 5.94 4.29 1.07 0.40 0.75 0.91 1.27 1.22 1.20 0.86 1.30 1.58 1.60 1.77 1.73 2.04 2.67 3.83 3.64 1.59 1.33 1.25 1.19 1.32 1.50 2.61 4.32 6.01 4.69
1.66 1.53 1.38 1.11 0.99 0.92 0.92 0.94 1.01 1.06 1.50 1.83 2.28 2.96 1.21 0.69 2.55 5.03 5.37 2.08 0.50 0.13 0.28 1.13 1.71 1.65 1.13 1.06 1.33 1.50 1.65 1.24 1.09 1.42 1.67 2.31 3.34 1.53 0.94 1.64 2.24 2.34 2.82 3.56 4.91 5.25 4.97
1.92 1.66 1.55 1.24 1.05 1.04 1.01 1.04 1.21 1.49 1.99 2.65 3.12 2.96 1.18 1.59 3.78 4.32 2.58 0.97 0.47 0.25 0.29 0.81 1.13 1.27 1.33 1.34 1.49 2.07 1.60 1.20 0.65 0.81 1.13 1.23 2.45 1.35 0.73 0.61 0.84 1.41 2.59 4.01 5.72 5.21 4.71
2.23 1.88 1.62 1.40 1.17 1.12 1.04 1.15 1.38 1.86 2.60 3.11 4.02 2.52 2.05 2.59 3.17 1.99 1.02 0.57 0.54 0.51 0.45 0.96 1.11 1.35 1.51 1.59 1.82 1.36 1.49 0.92 0.70 0.95 1.39 1.43 2.28 1.90 1.14 1.05 1.27 1.42 1.62 2.38 3.66 4.71 4.96
2.26 2.00 1.73 1.59 1.41 1.34 1.22 1.27 1.53 1.91 2.80 3.92 4.91 3.61 3.79 4.47 2.03 0.93 0.98 0.95 0.86 0.56 0.57 0.77 1.18 1.30 1.32 1.08 1.00 1.19 0.90 0.51 0.33 0.45 0.76 1.41 2.21 1.75 1.58 1.49 1.78 1.96 1.60 1.64 2.70 4.35 3.44
2.54 2.13 1.81 1.68 1.57 1.51 1.46 1.38 1.55 2.21 3.26 5.42 6.77 3.25 1.60 2.47 1.94 1.11 1.08 1.36 0.93 0.79 0.73 0.64 1.09 1.04 1.23 1.42 0.83 0.66 0.66 0.47 0.30 0.30 0.41 1.04 2.08 1.22 0.97 1.00 0.83 1.14 1.45 1.62 1.91 2.04 2.64
2.54 2.21 1.96 1.77 1.62 1.72 1.62 1.63 1.63 2.36 4.29 7.50 6.75 2.06 1.17 0.75 0.53 1.13 1.98 1.89 1.01 0.72 1.09 0.84 0.79 0.54 0.83 1.23 1.12 0.94 0.85 0.90 0.78 0.48 0.55 0.72 1.41 1.18 0.98 0.74 0.59 0.87 1.10 0.81 0.97 1.52 1.73
2.75 2.44 2.34 2.07 1.89 1.89 2.10 1.99 1.89 2.30 4.95 8.78 5.35 1.72 2.10 1.41 0.73 1.28 1.28 1.05 0.87 0.95 0.91 0.75 0.91 1.17 1.00 0.71 0.70 0.73 0.65 0.75 0.80 0.86 0.89 0.86 1.09 1.19 0.96 0.37 0.55 1.46 1.34 0.74 0.57 0.62 0.68
2.73 2.57 2.35 2.60 2.24 2.13 2.19 2.34 2.41 2.58 3.92 4.92 3.41 1.73 2.90 2.42 1.33 0.90 0.65 0.74 0.76 0.90 1.16 0.62 0.69 0.89 0.65 0.50 0.59 0.65 0.59 0.43 0.46 0.45 0.82 1.22 0.96 1.33 1.04 0.81 1.75 1.30 0.52 0.42 0.31 0.33 0.43
2.46 2.52 2.22 2.42 2.65 2.37 2.15 2.19 2.69 2.79 2.97 3.36 2.73 2.44 3.02 2.25 0.85 0.83 0.83 0.75 0.63 0.72 0.90 0.66 0.59 0.67 0.74 0.87 1.33 1.12 0.83 0.70 0.31 0.30 0.33 0.53 1.11 1.69 1.41 0.92 0.79 0.47 0.24 0.32 0.38 0.37 0.24
2.48 2.41 2.09 2.24 2.42 2.66 2.35 2.14 2.45 2.84 2.98 3.39 2.59 2.75 3.86 3.35 1.32 0.55 1.00 1.11 1.00 0.92 0.99 0.69 0.48 0.36 0.73 1.19 1.64 1.38 0.82 0.66 0.48 0.43 0.37 0.65 1.09 2.22 1.93 1.42 0.85 0.52 0.14 0.12 0.38 0.77 0.26
2.89 2.42 2.12 2.07 1.94 2.39 2.64 2.36 2.02 2.53 3.30 3.65 3.00 2.35 4.46 4.25 1.00 0.58 0.76 0.88 0.98 1.00 1.20 0.93 0.84 0.89 1.09 1.61 1.67 1.11 0.85 0.61 0.83 0.66 0.71 1.06 1.72 2.46 2.31 2.47 1.18 0.36 0.16 0.17 0.96 1.21 0.37
2.76 2.60 1.84 1.74 1.61 1.72 2.02 2.52 2.40 2.34 3.26 4.40 3.50 2.05 3.02 3.66 1.28 0.65 0.57 0.63 0.62 0.82 1.27 1.43 1.64 1.86 1.97 2.08 1.76 1.31 1.09 1.00 0.89 0.76 0.78 1.13 1.56 1.67 1.94 2.48 1.86 0.56 0.57 0.90 1.12 0.50 0.23
2.27 2.58 1.78 1.54 1.59 1.58 1.51 1.81 2.53 2.70 3.19 4.40 4.31 2.72 2.91 3.39 2.03 0.88 0.44 0.40 0.44 0.58 0.95 1.21 1.56 1.49 2.18 2.45 1.91 1.29 1.06 1.09 0.89 1.20 0.68 1.11 0.93 1.16 1.29 1.78 1.42 1.10 1.03 0.64 0.39 0.48 0.39